Theta_e
333 333 333 334 333 334 335 336 336 336 337 336 335 334 334 333 333 333 333 334 335 336 337 338 336 334 332 333 332 331 333 333 331 330 331 333 332 335 340 342 344 344 346 347 348 347 346 345 342 340 341 342 340 339 340 340 339 338 337 337 336 334 334 334 333 333 332 331 331 331 331 331 333 333 333 333 333 334 335 335 335 336 336 336 335
334 333 335 334 334 335 337 335 334 334 336 337 336 335 335 335 335 335 335 334 335 336 339 336 335 335 334 334 332 332 332 333 333 333 332 332 333 336 339 341 343 345 345 346 346 347 345 343 342 341 340 341 341 340 340 338 338 339 338 337 337 335 335 334 334 334 333 332 332 331 331 331 332 332 332 333 333 333 334 335 335 336 335 335 335
335 334 333 333 332 333 332 332 332 333 335 336 336 337 335 335 334 334 334 334 335 335 335 335 333 334 334 334 334 333 334 334 334 334 334 334 333 334 336 341 342 344 345 344 345 346 346 346 344 342 340 339 341 342 340 340 339 339 338 337 336 336 335 334 334 334 334 333 332 331 331 331 331 332 332 332 332 332 333 334 335 335 335 335 335
335 334 333 333 332 332 331 331 332 333 334 335 334 336 336 335 335 335 334 334 334 334 334 333 332 333 333 334 334 334 335 335 334 334 334 333 332 333 334 336 339 341 341 342 343 344 343 341 341 342 339 338 339 341 340 340 339 338 338 337 335 336 336 336 335 334 334 334 333 332 332 331 331 332 332 332 332 332 332 333 334 335 335 335 335
336 338 338 331 332 330 331 333 335 335 336 337 335 332 332 332 333 333 335 332 334 334 334 332 332 332 332 333 333 333 334 334 334 334 334 334 334 333 333 334 335 335 336 339 339 339 340 340 341 341 340 341 340 340 340 338 339 339 338 337 335 335 336 336 335 335 335 335 333 333 333 332 332 332 332 331 332 332 332 332 332 334 335 335 335
335 332 331 332 331 331 332 333 334 334 334 334 334 333 333 333 333 331 335 332 331 332 331 331 331 332 332 332 332 332 332 332 333 333 333 334 334 334 334 334 334 335 336 337 337 337 338 338 340 341 341 341 341 341 341 341 339 337 338 336 336 336 336 337 335 335 335 335 335 333 333 333 333 332 332 332 331 332 332 332 332 333 334 334 334
335 334 332 331 331 331 332 334 335 334 335 334 333 333 332 332 332 331 330 331 329 331 330 329 329 330 331 332 331 332 331 331 331 333 333 334 334 334 334 334 335 335 336 334 334 335 335 336 337 339 339 339 340 341 341 341 339 339 338 338 337 337 336 335 336 336 335 336 335 335 334 334 334 333 333 332 332 331 332 332 332 332 334 334 334
334 333 332 330 331 332 333 335 335 334 333 333 333 331 331 330 331 330 329 327 328 327 328 327 328 329 330 330 330 331 330 330 331 332 332 332 332 331 331 331 332 331 332 332 332 332 332 334 334 334 335 336 338 339 341 341 340 340 338 336 336 336 335 335 335 335 335 335 336 335 334 334 334 334 334 333 332 332 332 332 332 332 334 334 334
333 332 332 331 332 333 334 334 335 333 332 331 331 330 330 329 329 330 327 325 325 325 326 326 327 328 329 328 328 329 329 329 330 330 330 328 328 328 327 326 327 328 327 327 328 328 329 332 332 332 332 333 335 337 338 337 338 340 339 338 337 337 337 335 335 335 336 336 335 335 336 335 334 334 334 333 333 332 332 332 332 332 333 334 334
333 333 334 335 333 333 334 333 333 331 330 329 328 328 328 328 327 327 327 325 324 323 323 325 326 327 327 326 327 327 327 328 328 329 327 325 325 324 324 324 322 322 323 323 324 325 325 326 327 325 325 326 328 333 333 329 331 333 335 335 335 335 335 336 336 335 336 336 336 336 335 334 334 334 334 334 334 334 333 333 332 332 332 334 334
332 333 332 332 332 331 331 330 330 328 327 326 326 327 327 326 326 325 326 325 323 323 323 323 324 324 325 325 326 326 325 327 327 326 324 323 323 322 322 321 320 319 319 320 321 323 323 322 320 317 316 321 322 325 329 326 327 329 331 334 335 334 334 335 337 336 335 336 335 335 334 334 334 335 334 334 334 334 334 333 333 332 332 333 334
332 331 330 329 328 328 327 327 327 326 324 323 323 323 323 324 325 325 322 322 322 321 321 321 322 321 323 323 324 325 324 324 325 324 322 320 320 320 319 319 317 317 317 318 318 320 322 319 318 314 314 315 317 318 320 321 322 325 328 330 333 333 334 333 334 336 335 335 335 335 334 334 334 334 334 334 334 334 335 334 333 332 333 333 333
329 329 328 329 326 325 325 325 325 325 323 322 322 322 323 323 323 324 322 319 318 319 319 320 320 321 319 320 320 324 324 323 322 322 320 318 318 318 318 316 316 314 314 316 315 316 320 317 314 312 311 311 311 314 315 316 318 321 325 326 330 331 330 331 332 334 334 334 334 334 334 334 333 333 334 334 334 334 334 334 333 332 332 332 333
327 326 325 324 323 323 323 323 323 323 323 323 323 323 320 320 320 321 321 319 316 317 316 319 317 316 317 317 317 319 321 320 321 320 319 317 316 315 316 315 314 313 312 312 313 314 316 317 313 310 309 309 308 308 309 310 313 317 320 323 324 326 328 328 329 331 332 332 332 331 330 333 333 334 334 334 334 334 334 334 333 333 332 333 333
325 325 323 322 322 321 321 321 322 324 320 319 319 318 318 318 318 319 318 318 317 317 315 317 315 316 316 316 312 314 317 317 318 319 317 316 314 313 314 314 313 312 309 309 310 312 313 314 309 307 306 306 306 306 306 308 311 314 317 320 321 322 325 326 326 328 330 330 330 330 328 329 331 333 334 334 335 334 333 333 333 333 332 333 333
323 324 322 322 321 320 320 320 320 321 319 317 317 316 316 317 317 318 317 314 313 313 315 314 314 315 313 313 313 312 310 312 312 316 317 314 313 311 311 312 313 311 308 306 308 310 311 309 307 306 304 304 304 304 304 305 309 312 314 316 317 319 321 323 323 325 327 328 328 328 327 328 329 330 333 333 333 333 333 333 334 333 332 332 333
321 321 321 320 320 319 319 318 318 318 318 316 315 315 315 315 315 315 314 312 311 311 313 313 312 316 315 313 310 309 308 310 311 312 314 315 312 310 309 308 310 309 306 305 307 308 308 306 306 304 303 303 302 302 303 303 305 308 310 315 316 316 317 318 319 321 324 325 326 327 327 328 327 327 329 332 333 334 333 333 333 333 333 333 332
319 319 320 319 318 318 318 317 316 316 316 315 315 314 314 314 314 313 312 312 311 309 309 312 311 311 312 313 313 308 307 308 308 306 313 314 312 310 306 305 309 307 305 303 305 306 306 304 305 304 302 301 301 301 302 302 305 305 309 310 313 312 313 314 317 318 321 323 324 325 326 326 326 325 327 328 332 333 332 333 333 334 334 333 333
318 318 318 318 317 316 316 316 315 315 316 314 313 313 313 313 313 311 311 311 309 306 306 307 309 308 308 308 308 307 307 305 302 304 302 307 311 307 304 303 306 305 303 301 303 304 303 303 303 302 301 301 301 301 301 302 304 306 312 312 312 309 310 310 313 315 318 320 322 322 324 324 324 324 327 327 326 330 332 333 333 334 334 333 333
316 316 317 317 316 315 315 314 314 315 315 312 311 311 311 311 312 311 311 309 308 306 304 305 304 304 306 305 305 305 303 302 303 304 302 298 299 304 303 301 305 303 303 301 302 303 302 302 302 301 300 300 301 300 301 301 302 303 306 309 310 309 309 309 308 308 312 317 319 320 321 322 324 323 325 324 323 324 326 331 332 333 333 333 333
315 314 315 315 316 313 313 313 312 313 314 311 310 310 309 308 308 307 307 307 307 306 304 302 302 301 302 301 302 301 301 300 300 302 298 295 296 294 295 298 302 302 302 301 302 303 301 300 302 301 300 300 300 300 301 301 303 304 307 308 308 308 308 308 306 306 306 310 314 317 319 320 323 324 323 321 321 322 323 325 328 332 333 333 334
312 313 313 312 312 313 312 312 312 313 312 309 309 308 308 307 307 306 306 304 305 304 302 301 301 301 300 300 298 299 298 297 297 297 298 297 293 292 293 293 293 297 301 300 302 301 300 300 300 301 299 299 300 300 301 301 302 303 306 307 308 307 307 307 305 305 306 306 309 312 315 317 320 322 321 320 321 321 322 323 325 327 332 333 333
311 310 310 311 312 314 311 311 312 313 310 308 308 307 307 306 305 305 304 303 302 301 301 301 300 299 299 298 297 297 296 294 295 295 295 293 293 293 294 294 294 294 299 299 301 300 299 299 299 300 299 299 300 300 301 301 303 305 307 307 306 306 306 305 304 304 305 306 306 309 313 316 318 318 317 318 319 320 321 322 323 323 324 328 333
309 308 308 309 310 309 311 309 309 308 307 307 307 306 305 304 303 303 302 302 302 301 299 298 298 298 298 298 297 297 297 296 296 296 295 294 293 292 292 293 294 295 297 298 300 298 298 298 298 299 299 299 300 301 301 301 302 305 305 305 304 304 305 305 304 304 303 304 304 306 310 312 313 313 314 315 316 317 319 320 320 319 319 320 324
306 306 307 308 309 308 308 308 307 308 307 306 305 305 303 302 301 301 300 300 299 299 298 298 298 297 296 297 297 297 296 297 297 296 295 295 294 292 293 294 292 293 296 296 295 297 298 297 298 299 298 299 299 300 300 301 301 304 306 304 303 303 303 304 305 304 303 302 303 304 306 309 310 311 311 312 313 314 316 316 313 312 312 311 314
305 305 306 307 307 308 307 307 307 307 307 305 304 303 302 301 300 299 299 299 299 298 298 298 297 297 298 296 296 296 296 297 296 296 295 294 293 292 291 292 293 292 295 294 295 294 295 297 298 299 298 299 299 300 301 301 301 304 305 303 302 302 302 302 304 304 303 302 302 303 303 304 306 307 308 308 309 309 309 309 310 311 309 309 309
305 306 307 306 306 306 306 305 305 305 305 305 304 303 302 301 300 300 299 298 298 298 297 297 297 296 297 297 296 296 296 296 296 296 296 295 294 293 292 290 291 293 291 293 293 293 293 296 297 298 298 300 299 300 300 301 301 304 304 301 301 301 301 302 303 304 303 302 301 301 302 302 303 303 303 304 305 306 307 308 309 308 309 309 310
305 305 305 305 304 304 305 304 304 304 304 303 302 301 300 299 299 298 298 299 297 297 297 297 296 296 296 296 295 295 296 296 296 296 296 296 295 295 294 292 289 288 290 290 291 291 294 293 296 298 297 298 299 300 301 301 300 303 303 301 301 301 301 302 303 303 302 302 302 302 302 301 301 302 303 304 306 306 307 308 307 307 307 308 310
304 305 303 303 303 303 303 303 303 303 303 302 301 300 300 299 298 297 297 298 298 296 297 296 296 296 296 295 295 295 295 296 296 296 296 296 296 296 295 293 292 289 287 287 289 290 293 294 292 295 298 298 299 300 300 299 300 301 300 300 300 300 301 302 302 301 302 302 302 301 301 302 302 302 304 305 305 305 306 306 306 306 306 307 310
304 304 303 303 304 305 302 302 302 302 302 301 301 300 299 298 298 298 297 298 297 298 298 296 296 296 296 295 295 294 295 295 295 296 296 296 296 296 296 296 295 291 290 288 289 292 292 295 295 294 297 297 298 299 300 300 301 301 300 299 300 300 302 302 301 300 301 302 301 299 299 300 301 302 304 304 304 304 304 304 304 305 305 307 309
303 301 301 301 301 301 301 301 301 301 301 300 300 299 299 298 298 297 297 297 296 296 297 297 296 296 294 294 294 294 295 295 295 295 296 296 295 296 296 296 295 294 292 291 288 292 294 292 295 297 296 297 298 298 299 299 300 300 299 300 299 301 302 301 301 301 301 301 300 301 302 301 300 301 301 302 303 303 303 304 303 304 305 306 305
301 301 300 300 300 300 300 300 300 300 300 300 299 299 298 297 297 297 297 296 296 295 295 296 295 295 294 293 294 294 294 294 294 295 295 295 296 295 295 295 295 295 294 292 290 290 295 294 295 296 297 297 297 297 297 298 298 301 299 299 299 301 300 300 301 301 301 301 300 301 302 300 299 300 301 301 301 302 302 301 302 303 303 302 302
300 299 299 299 299 300 300 301 300 299 299 299 299 299 298 297 297 297 297 296 295 295 296 295 295 294 294 293 293 294 294 294 294 294 294 294 295 295 295 295 294 295 294 292 290 291 294 296 295 295 297 297 296 297 296 297 297 298 299 299 299 299 299 299 300 300 300 300 300 299 299 299 299 301 301 301 301 301 301 300 301 301 301 301 300
299 298 298 298 298 298 298 298 299 299 299 298 298 298 297 297 297 297 296 296 295 294 294 294 294 294 294 293 293 294 294 293 293 293 293 293 293 294 294 294 294 294 295 293 292 291 290 294 294 296 296 297 294 297 296 295 296 298 297 297 298 298 299 299 299 299 300 300 299 299 300 299 299 300 299 298 298 298 299 299 298 298 300 300 296
298 297 297 297 297 298 297 298 298 298 298 298 298 297 297 296 296 296 296 295 295 294 294 293 293 294 294 294 293 294 294 293 293 293 293 293 293 293 293 294 293 294 294 294 292 290 290 291 294 293 294 295 295 294 296 296 297 297 295 296 297 298 300 300 299 299 299 299 299 300 299 299 299 298 298 298 298 297 298 298 298 298 298 298 298
296 297 296 297 297 297 297 297 297 297 298 298 297 297 297 296 296 296 295 295 295 294 294 293 293 294 293 294 293 294 294 293 293 293 293 293 293 293 293 293 293 293 294 294 294 292 291 290 292 292 294 293 294 295 296 296 296 295 296 297 298 298 298 299 299 298 299 300 300 299 299 299 298 298 297 297 297 297 297 297 297 297 297 298 298
295 296 297 296 296 296 296 296 296 297 297 297 297 297 297 296 296 296 295 295 295 295 295 297 298 295 295 294 294 294 294 294 294 294 293 293 292 293 292 293 293 293 293 293 293 293 292 290 291 293 294 294 295 295 296 294 295 295 296 296 296 296 297 298 298 299 300 300 299 299 299 298 298 297 297 297 297 297 296 296 297 297 298 298 298
294 295 295 296 296 295 295 295 296 296 297 297 297 296 296 296 296 296 296 296 296 295 295 295 295 296 295 295 295 295 295 294 295 295 294 293 293 293 292 293 292 292 292 292 293 293 292 291 291 291 293 292 292 293 294 294 293 293 293 295 296 296 296 296 297 298 299 300 299 299 299 298 298 297 298 297 297 296 296 296 297 298 298 298 298
294 294 294 294 295 294 294 295 295 296 296 296 296 296 295 295 295 295 295 295 295 295 295 295 295 295 295 295 296 295 296 296 296 295 294 294 293 293 294 292 292 292 292 292 292 292 291 291 291 292 291 293 293 291 293 294 294 293 292 292 292 294 295 295 295 297 298 298 299 298 298 298 298 298 297 296 296 297 297 297 297 297 298 298 298
293 293 293 294 295 294 294 294 295 296 295 295 295 295 295 295 295 295 295 295 295 294 295 294 295 295 295 295 295 296 298 298 299 297 295 294 294 293 293 293 293 292 292 292 291 291 290 290 290 290 291 291 292 293 294 293 292 292 293 292 290 291 292 294 295 295 297 298 297 297 298 298 297 298 297 297 297 297 297 297 297 297 298 298 298
294 293 293 293 293 293 293 294 294 295 295 295 295 294 294 294 295 295 295 295 295 294 294 294 294 294 294 294 295 299 300 300 299 299 297 296 295 293 293 293 294 292 291 291 291 290 290 290 290 291 290 290 291 290 290 290 290 290 292 292 291 292 292 293 294 297 297 296 296 296 296 297 296 296 296 296 296 296 296 297 297 297 297 297 297
292 293 292 293 293 293 293 293 294 294 295 296 298 297 297 296 294 294 294 294 294 295 295 294 293 294 293 293 297 300 299 298 298 297 294 294 295 295 294 294 293 292 292 291 290 290 290 289 289 289 288 288 289 290 290 291 292 292 291 291 290 291 292 292 293 296 298 297 295 294 295 296 296 295 295 294 295 296 296 296 296 296 296 296 296
292 293 292 291 292 292 293 293 293 293 294 296 296 294 294 296 295 295 295 295 294 294 294 293 294 295 293 293 293 297 297 296 298 295 293 293 293 293 293 294 294 294 292 291 290 291 290 289 290 289 289 288 289 290 290 291 292 291 290 291 290 290 289 288 288 292 298 296 294 293 293 295 295 293 293 294 294 295 295 295 295 296 296 296 296
292 291 291 291 291 291 292 292 292 293 294 296 293 294 294 294 297 296 295 295 294 294 293 293 294 294 294 294 294 295 295 298 297 294 294 293 292 292 292 292 292 292 292 292 291 290 290 289 289 289 289 289 289 290 291 291 290 291 291 291 290 289 289 289 290 289 294 297 294 292 291 294 294 293 292 293 294 295 294 295 295 295 295 296 296
290 290 289 290 290 291 292 292 292 293 293 294 293 294 294 294 294 295 295 294 295 294 293 293 292 292 292 293 294 294 294 297 295 293 293 292 293 293 293 293 292 293 290 290 291 293 293 291 289 289 289 289 289 290 292 291 292 290 290 290 290 290 290 290 290 291 294 297 294 290 289 292 293 292 291 293 294 294 295 295 295 295 295 295 296
289 289 289 289 290 290 291 291 291 291 292 294 292 293 293 293 293 294 295 294 294 293 293 292 293 293 292 293 292 293 294 294 293 294 292 291 291 291 291 291 291 292 291 291 291 291 292 292 291 289 291 292 290 291 293 293 291 290 289 289 290 290 291 291 292 293 295 296 292 290 288 290 292 291 290 292 294 294 294 294 294 294 295 295 295
289 289 289 289 290 291 290 290 291 291 292 292 291 292 292 292 292 293 294 294 293 293 292 292 292 293 292 292 292 293 293 292 294 294 292 291 291 290 291 291 291 291 291 292 292 293 293 293 292 291 292 292 292 293 293 293 293 292 292 292 292 292 292 294 294 295 294 296 294 291 286 289 291 289 290 291 293 293 294 294 294 294 295 295 295
289 289 289 290 289 289 289 290 290 289 290 291 291 291 292 292 293 295 294 293 293 293 293 292 292 292 292 292 293 293 293 291 293 291 291 293 291 290 290 290 290 290 291 293 292 292 293 293 293 293 293 293 292 293 293 293 293 294 294 294 294 293 291 290 289 291 291 294 294 290 287 288 291 289 289 291 292 291 293 294 294 295 295 295 295
288 288 288 289 289 288 289 289 289 288 290 291 291 291 291 291 292 292 293 293 292 292 291 291 291 291 292 294 295 294 292 291 292 290 290 292 290 290 289 289 289 289 290 291 291 291 291 291 290 290 290 290 290 291 291 291 292 294 293 291 289 290 289 287 288 289 289 292 293 292 289 287 289 289 288 290 291 290 291 293 295 295 295 295 295
288 288 288 288 288 289 288 287 288 288 288 291 291 291 291 291 293 292 292 291 290 291 290 290 290 291 291 296 297 294 291 292 291 289 289 293 290 290 289 288 288 288 289 290 290 291 291 291 290 290 290 290 290 291 291 291 291 293 292 288 290 290 289 288 287 288 289 291 291 292 288 287 289 289 288 289 290 291 291 293 294 295 296 296 296
289 289 291 288 287 287 287 289 295 289 289 292 291 290 290 291 292 290 291 290 290 288 288 290 291 290 290 291 293 293 293 292 289 289 289 292 290 290 289 288 288 288 289 289 289 290 290 290 290 291 291 292 293 292 293 291 292 294 293 292 291 290 288 288 288 288 286 288 291 293 287 287 287 289 288 286 285 289 292 293 294 294 295 296 296
Wind_Speed
1 2 2 2 1 1 1 1 1 1 1 2 1 3 4 4 4 4 4 4 4 4 4 4 4 4 4 5 4 4 5 5 5 4 4 3 3 4 6 6 6 7 9 10 11 12 13 14 11 12 11 9 8 10 11 13 14 13 14 12 13 13 12 12 12 11 10 8 9 8 8 8 8 9 8 7 5 6 7 7 7 5 4 3 4
2 2 2 1 1 1 2 2 1 1 1 2 2 1 3 4 4 4 4 4 4 4 4 4 4 4 4 4 4 4 4 5 5 5 4 4 3 3 5 5 5 6 6 9 11 11 12 13 13 11 10 10 12 13 12 11 13 14 13 14 13 12 13 13 12 12 11 11 10 9 9 9 10 10 9 9 7 5 6 7 8 7 5 4 4
3 3 3 2 1 0 1 2 2 2 1 1 2 2 2 2 3 4 4 4 4 4 4 4 4 4 4 3 4 3 4 4 4 4 4 4 4 4 4 6 6 5 6 7 8 10 11 12 13 10 10 11 12 13 14 11 14 14 14 10 12 11 14 14 13 13 12 12 9 10 10 10 10 10 11 10 10 7 6 7 8 8 7 6 4
4 3 4 3 1 0 1 1 2 2 1 0 1 2 2 2 2 2 2 1 2 2 2 2 3 3 3 3 3 3 3 3 4 4 4 4 4 4 4 4 6 8 8 8 8 8 11 13 12 14 14 11 14 17 15 13 13 14 13 10 9 12 14 14 14 10 12 14 12 11 12 11 11 11 12 11 11 10 8 7 7 8 8 8 6
3 4 4 3 2 1 1 1 1 1 1 3 4 3 3 3 3 3 3 4 5 5 4 3 4 5 4 5 4 5 4 4 4 4 4 4 3 3 4 4 4 7 8 10 10 11 12 13 15 13 12 11 12 13 14 13 15 15 14 11 10 13 15 16 14 12 14 16 15 13 13 13 13 12 13 13 12 11 10 9 7 7 9 9 8
4 4 3 3 3 3 3 2 1 2 3 3 5 4 4 5 4 4 4 5 5 5 5 5 5 5 5 5 5 5 5 4 5 5 5 6 5 6 6 6 5 5 7 12 13 12 13 13 14 15 15 16 16 14 13 13 11 12 13 10 11 11 14 17 14 13 15 16 16 14 14 14 13 13 13 13 13 12 11 10 8 8 8 9 9
4 5 3 3 4 4 4 3 3 3 4 4 5 4 5 5 4 4 4 4 4 3 4 4 5 5 5 5 5 5 4 4 5 6 6 6 6 7 8 8 7 8 8 7 10 16 16 16 17 16 17 18 17 18 17 16 15 12 11 11 12 13 15 13 12 14 17 17 15 15 14 15 15 15 15 13 13 13 13 12 10 9 8 10 10
4 4 5 3 4 5 4 3 4 5 5 5 5 5 4 5 5 4 4 4 4 4 3 4 4 5 5 4 4 4 4 5 6 6 6 6 8 7 7 9 9 8 9 7 8 10 20 19 18 19 20 20 20 19 19 18 17 17 13 9 11 15 13 14 13 16 17 17 16 17 16 17 17 17 16 16 14 14 14 13 12 10 10 10 10
5 5 5 4 4 5 5 4 4 5 5 5 5 4 4 5 6 5 4 3 5 6 6 5 5 5 4 4 4 3 6 5 6 5 6 9 8 9 9 9 9 11 9 8 8 8 14 20 19 21 23 22 22 22 23 24 24 22 21 18 16 18 14 11 13 14 15 17 18 17 18 20 18 17 17 16 15 16 15 14 13 12 11 12 11
5 5 6 5 5 6 6 5 5 5 5 5 4 4 5 4 5 4 4 5 6 5 6 5 4 4 3 3 3 5 5 6 6 6 8 8 8 8 7 7 8 8 9 7 8 8 8 14 19 19 22 22 21 22 23 23 22 21 21 20 18 20 20 20 15 14 16 19 22 21 21 18 15 17 17 16 17 16 16 15 14 13 13 12 12
6 6 6 6 6 6 6 5 5 5 5 5 5 5 5 5 6 5 5 5 4 4 4 5 5 4 2 2 3 6 5 5 5 6 7 7 8 7 6 7 7 8 8 9 8 9 10 10 10 10 12 23 22 22 21 22 21 21 21 21 21 18 18 19 21 20 13 16 17 18 18 15 15 15 17 17 17 16 18 17 16 14 15 13 13
6 6 7 6 7 6 6 5 5 5 6 7 5 5 6 6 6 5 5 4 5 6 5 5 4 2 3 3 3 4 7 6 7 7 6 7 6 6 7 7 8 7 9 7 9 9 10 10 10 10 10 15 21 21 21 21 22 21 21 21 21 21 20 20 21 21 20 19 14 17 18 17 17 17 16 18 17 18 18 18 17 17 15 16 14
6 7 7 7 7 6 6 6 5 6 6 5 4 5 5 4 3 5 5 7 7 7 7 4 3 3 2 4 3 4 5 7 8 7 7 6 5 6 6 7 7 8 7 8 8 10 8 10 10 10 10 9 12 18 19 20 21 21 22 22 21 22 21 21 21 20 21 20 21 19 14 17 17 16 17 18 18 19 19 19 18 16 16 16 16
6 7 7 7 7 6 6 5 5 6 5 5 5 5 6 7 4 4 5 7 6 7 8 4 4 3 4 5 5 3 3 6 8 7 6 6 6 7 7 8 8 8 7 8 8 9 8 9 9 9 10 10 10 10 11 12 15 21 21 23 22 22 21 21 21 22 22 20 20 21 22 11 18 17 19 18 19 21 20 19 18 18 17 17 17
6 6 7 7 7 7 6 5 6 4 6 6 6 7 6 6 6 4 3 4 4 5 8 7 3 3 1 2 4 4 4 5 3 6 6 6 6 8 7 8 9 8 7 8 8 8 8 10 10 11 11 11 10 10 10 11 16 20 21 22 23 22 22 21 22 22 22 22 22 21 20 22 13 22 22 22 22 21 19 19 19 19 18 17 16
6 6 6 7 7 7 5 5 6 5 5 5 6 6 6 6 7 6 3 4 4 7 8 9 6 4 4 2 2 2 3 4 7 4 3 8 8 8 8 8 8 9 9 10 9 8 9 11 11 11 11 11 11 10 10 11 16 18 20 23 24 23 23 22 22 23 23 24 23 22 20 21 21 18 19 21 20 18 20 19 20 18 18 18 18
6 6 6 7 6 6 6 6 6 5 5 6 5 5 6 6 6 6 5 3 4 4 7 8 10 7 3 2 2 3 2 4 6 4 1 4 5 6 9 10 8 9 9 9 8 8 9 11 10 11 12 11 11 11 10 12 11 12 14 20 23 23 22 22 22 23 23 23 23 23 23 21 21 21 20 19 20 21 21 21 19 18 19 20 21
6 6 6 6 6 6 6 6 6 5 5 5 5 6 7 7 6 4 6 6 5 6 5 6 8 10 10 7 4 3 2 4 3 4 5 2 2 7 10 10 7 8 8 9 9 8 10 10 9 10 11 11 10 11 10 10 12 10 11 15 23 23 22 23 23 23 24 24 22 22 22 23 21 22 22 22 19 25 21 22 20 22 19 22 22
6 6 6 6 6 6 7 7 6 6 4 6 7 7 6 6 4 6 6 4 6 7 5 3 3 8 7 8 10 8 5 3 2 4 4 3 5 7 7 10 6 8 10 10 9 9 9 10 10 10 10 10 9 9 9 10 13 13 18 21 21 21 21 21 23 24 24 24 23 23 23 22 23 21 22 21 24 15 24 22 22 22 21 23 24
6 6 6 6 6 7 6 6 6 5 5 6 6 5 6 6 6 7 7 7 6 6 5 6 5 3 5 7 7 7 7 7 4 1 1 5 3 3 7 7 5 7 8 10 9 8 9 9 10 10 9 10 9 9 9 9 9 9 12 22 22 22 22 22 22 21 23 24 24 24 23 21 20 21 20 22 21 20 21 17 25 23 24 24 25
6 6 6 6 6 6 6 6 6 6 6 6 6 7 8 8 8 8 8 6 6 5 7 6 6 6 4 6 4 5 5 6 5 4 4 4 4 6 7 3 3 5 7 8 6 6 8 9 9 8 9 9 8 9 9 8 8 8 15 21 22 21 21 22 20 19 19 24 23 24 23 22 21 20 19 21 20 21 20 21 19 23 25 25 24
6 6 7 7 7 6 6 6 6 6 6 7 8 8 8 9 8 8 8 8 6 7 8 7 7 7 7 5 6 3 3 5 7 6 3 7 4 7 9 12 10 4 4 8 6 6 7 9 8 6 9 8 8 8 8 9 10 11 15 22 21 21 21 22 19 19 20 22 24 24 23 22 22 21 21 20 20 20 20 21 20 21 20 28 25
5 6 6 6 6 5 6 6 6 6 6 7 7 7 8 8 8 9 8 8 7 8 10 9 8 8 9 8 8 7 5 5 5 6 6 5 5 5 8 6 7 7 6 7 6 6 7 8 9 7 8 8 8 8 8 8 11 16 22 20 21 20 21 21 19 19 19 23 23 24 23 22 22 22 22 21 20 19 20 20 21 21 22 19 28
5 6 6 6 6 6 6 7 7 7 7 6 7 7 7 7 7 7 7 8 9 9 8 9 9 8 8 6 6 6 6 5 5 5 5 5 3 4 6 7 3 1 4 7 3 6 7 10 9 6 8 9 8 9 8 9 9 21 19 19 20 21 21 22 20 19 18 20 21 23 23 23 23 23 22 23 21 21 20 20 21 22 22 23 21
5 6 5 5 5 6 6 7 6 6 7 8 7 8 8 8 8 9 9 9 7 8 8 8 8 7 6 5 5 6 6 5 5 5 5 3 4 5 4 3 4 6 2 5 6 5 4 8 9 6 8 9 9 8 9 9 10 16 22 14 21 19 21 22 21 20 19 18 18 22 23 23 23 23 22 22 23 22 21 21 17 18 19 21 20
6 5 4 5 6 5 6 7 7 7 8 8 8 8 8 8 8 9 9 7 9 10 9 9 8 7 6 6 6 6 6 5 5 5 5 5 5 8 6 5 2 3 3 5 6 6 2 5 7 5 7 9 9 8 8 10 9 17 21 15 13 18 19 20 21 21 20 18 18 20 21 22 22 22 22 22 22 22 20 18 18 18 18 18 20
6 5 5 6 6 6 6 7 7 7 8 8 8 8 9 9 8 8 8 8 9 9 8 8 8 8 7 6 7 6 6 6 5 5 4 5 5 5 7 9 6 1 5 2 4 4 5 7 6 4 8 9 8 8 10 10 11 19 20 11 9 15 16 19 21 22 21 20 18 18 19 19 20 19 20 21 20 21 22 21 20 20 19 20 20
5 6 5 6 6 7 6 7 7 8 8 8 9 8 8 9 8 8 9 6 9 10 7 8 8 8 7 6 7 7 5 5 5 5 5 4 4 3 5 6 7 8 8 6 6 4 3 8 6 1 9 10 9 8 12 12 9 18 16 9 8 9 14 17 20 21 21 20 20 19 19 19 19 19 20 21 22 21 22 23 20 20 19 19 21
6 5 6 6 6 6 7 7 7 7 8 8 9 9 9 8 8 9 9 8 8 8 7 7 7 6 7 8 6 6 5 4 5 5 4 4 4 4 5 6 5 4 8 8 8 8 7 10 9 8 9 9 9 8 9 9 12 15 12 10 10 9 13 20 18 18 18 19 18 17 19 20 21 22 24 23 23 22 21 22 22 19 20 21 21
6 5 6 6 6 7 7 7 7 8 8 8 9 9 9 8 9 8 7 8 8 7 7 7 7 6 7 6 5 6 5 5 5 4 4 4 4 5 4 4 4 6 6 8 8 4 9 9 6 9 12 12 10 9 8 8 14 16 12 10 9 10 18 19 17 16 17 18 17 17 17 18 20 22 24 24 23 22 21 21 22 22 20 21 21
6 7 7 7 6 6 7 7 7 8 8 8 8 8 9 9 8 8 8 8 8 8 6 6 5 5 6 7 5 5 4 5 5 4 4 4 4 4 4 4 4 4 5 6 8 2 5 10 10 10 11 13 12 10 9 9 12 16 12 9 11 16 20 14 16 16 16 18 18 18 21 20 19 19 21 24 24 23 23 22 21 23 22 20 20
7 7 7 7 6 7 6 7 8 7 8 8 9 9 8 8 8 8 7 8 8 8 7 5 4 5 6 6 5 5 4 4 4 4 4 4 4 4 4 4 3 3 3 4 6 10 7 7 9 12 13 12 13 12 13 11 11 15 12 11 12 16 11 10 12 14 16 17 18 18 20 20 19 20 21 22 23 24 23 22 21 21 22 19 17
7 7 7 7 7 7 7 6 8 8 9 8 7 8 8 9 8 8 8 7 8 7 6 6 5 5 5 6 6 5 4 5 4 4 4 4 3 3 3 3 4 3 3 4 7 10 8 4 7 9 11 10 11 12 13 13 13 12 13 11 11 10 10 10 11 13 15 16 17 18 19 19 19 20 22 21 22 23 22 19 19 18 18 19 17
6 8 7 6 6 7 8 8 8 8 9 9 7 8 9 9 8 6 7 8 8 7 6 7 6 4 6 7 7 5 4 5 4 4 3 3 4 4 4 4 4 5 3 3 5 8 12 9 8 8 9 9 11 10 11 13 14 13 14 14 10 10 9 10 12 11 16 17 18 18 19 19 19 18 18 18 18 18 20 19 17 16 17 18 17
6 6 7 7 7 7 8 8 8 8 8 8 7 8 8 9 8 7 6 6 7 6 6 6 6 5 7 7 6 5 4 6 5 4 4 4 3 4 5 4 5 6 5 3 5 8 9 10 9 10 9 10 10 13 13 11 12 12 15 14 13 11 8 9 11 11 14 16 18 18 18 18 18 18 17 18 18 18 19 21 19 17 16 17 18
7 6 6 7 7 8 8 8 8 8 8 8 8 8 9 8 8 7 6 6 5 6 6 6 6 6 6 6 5 5 5 6 6 6 5 5 5 5 5 5 5 6 5 5 4 5 6 10 10 10 10 11 10 11 11 10 11 12 12 12 11 11 13 11 10 12 14 18 19 18 18 17 17 17 17 18 19 20 20 21 22 20 18 18 18
7 7 5 6 7 8 8 8 8 8 8 8 9 8 7 7 7 7 6 5 5 5 5 5 5 5 5 5 5 5 5 6 6 7 6 9 6 5 6 5 5 5 6 5 6 5 7 9 10 8 9 9 8 11 10 12 11 10 11 11 12 14 14 12 11 10 12 17 16 16 16 15 16 16 17 19 20 21 20 20 22 21 20 19 18
7 6 7 5 6 8 7 7 8 8 7 8 8 8 7 7 6 6 5 5 5 5 5 5 4 4 5 5 4 4 4 6 6 7 7 8 6 6 6 6 6 6 6 7 6 7 6 8 9 11 8 10 10 8 11 11 12 14 14 13 12 10 12 16 13 13 11 8 8 8 9 12 13 17 19 20 20 20 20 19 20 21 20 18 17
8 7 6 8 5 8 7 7 8 8 8 7 7 7 7 7 7 6 5 5 5 4 4 4 3 3 4 4 5 4 5 5 5 6 6 7 5 6 5 6 6 6 6 6 7 7 7 8 8 8 10 8 8 12 11 10 11 10 14 17 17 12 12 15 20 15 13 13 11 12 12 14 19 18 19 20 20 20 20 19 19 21 20 18 16
7 7 8 8 5 6 6 7 6 7 7 7 7 7 7 7 6 6 6 5 5 4 4 3 4 4 5 5 5 5 5 5 5 5 5 6 5 6 5 5 6 6 6 6 7 7 8 7 8 10 8 10 9 7 9 10 11 9 9 13 17 19 18 18 15 18 18 13 13 12 11 14 15 15 16 17 18 18 19 18 19 19 21 19 16
5 6 6 7 8 8 6 7 7 6 7 6 6 6 7 6 6 6 5 5 5 5 4 5 5 5 5 5 6 6 8 11 12 8 7 6 4 6 6 6 6 6 6 6 6 7 7 7 9 8 9 10 9 11 12 11 12 14 15 14 15 15 16 16 16 14 13 15 15 15 15 13 14 14 11 12 11 14 15 16 16 19 19 17 16
6 6 6 5 7 8 8 7 6 5 5 4 5 8 7 7 6 5 5 5 5 4 5 5 5 5 5 5 6 11 12 11 11 11 12 11 9 4 4 4 5 5 6 7 7 6 7 8 9 10 10 10 11 11 11 11 11 13 14 14 15 16 17 18 13 7 12 12 17 19 16 14 13 16 15 16 14 12 12 12 11 12 15 17 18
6 5 5 6 6 6 7 7 7 5 4 4 7 9 9 10 7 6 6 5 4 4 5 5 5 4 5 5 5 7 8 7 8 11 11 12 11 12 11 10 8 5 5 7 7 7 7 8 8 8 9 11 12 11 11 12 11 13 14 14 14 15 15 17 18 13 4 13 17 16 18 15 14 15 15 15 15 13 13 13 16 17 18 19 20
5 5 6 6 6 6 6 6 6 5 4 4 8 10 10 10 8 7 6 5 4 4 5 4 4 4 5 5 5 4 5 7 6 7 9 11 11 11 11 10 10 11 8 4 5 7 7 8 9 9 9 9 12 12 11 12 13 13 12 12 13 14 16 16 16 17 18 16 19 19 19 16 12 16 16 15 13 13 12 16 19 19 19 19 19
5 6 5 6 6 5 6 7 6 4 4 5 8 9 9 10 10 8 5 5 5 5 4 3 4 4 4 6 7 6 5 10 7 6 7 8 9 10 10 9 9 11 12 13 9 6 5 6 7 10 9 10 11 12 12 13 12 13 14 13 12 12 13 15 17 17 17 14 15 17 18 17 13 15 16 15 16 14 13 14 17 18 18 18 19
6 6 5 6 5 6 6 7 6 4 5 4 7 9 9 9 10 8 6 5 5 4 3 2 3 4 4 5 5 7 7 7 6 7 7 6 7 8 8 7 6 9 10 11 11 12 9 6 7 8 11 8 10 11 14 12 13 14 14 14 13 13 14 17 19 18 16 13 15 16 18 14 14 14 15 18 14 14 15 18 19 20 20 20 20
7 6 6 6 5 5 5 6 6 5 3 3 7 9 9 9 9 7 6 5 4 3 2 3 3 3 4 3 3 4 5 6 5 7 6 6 6 6 8 9 7 6 7 8 7 7 7 6 6 8 10 9 9 11 11 11 11 11 12 14 15 13 16 16 14 12 13 12 14 13 16 17 12 14 18 16 16 19 16 18 19 18 19 19 19
4 5 4 5 6 6 5 6 6 5 2 2 6 9 9 9 9 6 5 5 5 3 3 4 3 3 3 4 4 5 5 6 6 9 6 5 4 6 8 9 9 7 6 5 9 9 9 8 7 8 8 11 14 12 13 11 10 10 11 11 11 12 13 14 15 15 15 13 11 12 14 16 16 15 17 18 17 17 17 14 16 17 17 18 18
6 5 5 4 5 6 5 5 7 5 3 2 5 8 8 10 7 5 5 5 4 3 2 2 3 3 4 4 4 4 5 5 7 9 9 5 4 5 6 8 8 8 7 7 11 12 12 14 14 15 16 17 17 19 19 20 15 12 10 11 11 13 14 15 13 13 16 15 10 13 13 15 13 13 17 19 15 16 16 13 11 12 14 15 15
6 6 6 6 4 4 6 6 5 6 3 3 5 6 7 6 6 7 5 5 4 3 2 2 3 4 4 6 5 4 4 5 8 8 7 4 5 5 5 7 8 9 9 7 8 9 14 14 14 15 16 16 17 18 18 19 19 14 11 13 14 13 13 12 14 15 16 13 11 13 13 12 16 15 16 16 15 10 11 10 10 9 10 11 13
6 6 5 6 5 3 4 4 6 7 5 3 5 7 7 7 6 5 6 5 5 3 2 2 3 3 3 2 3 3 4 6 8 7 7 4 3 4 5 5 7 8 7 8 8 9 9 10 10 10 11 13 11 10 12 19 18 16 11 10 12 12 12 13 14 13 11 7 11 15 13 12 15 13 12 13 13 7 2 7 11 13 12 10 10
Wind_Direction
101 77 62 54 48 51 68 312 325 325 4 39 61 356 354 359 358 338 340 339 344 332 329 321 318 315 313 309 310 310 318 322 320 318 323 325 324 329 326 303 276 258 255 257 261 264 267 266 266 260 260 275 260 255 257 269 273 276 275 262 240 244 246 245 245 252 259 258 253 252 254 253 246 247 245 242 256 266 271 288 286 279 273 271 273
117 98 98 80 62 24 4 348 314 262 55 26 47 45 353 353 349 340 338 339 338 331 334 319 315 315 312 303 304 302 309 310 316 321 323 335 344 334 327 316 300 282 271 274 280 281 282 285 283 291 286 268 277 269 271 279 288 280 271 269 251 251 251 246 244 247 252 252 241 250 252 249 251 247 247 241 242 255 266 280 285 276 269 261 250
126 123 106 109 90 48 346 331 313 341 34 2 50 59 42 357 317 326 331 335 331 329 330 322 324 324 325 308 298 302 300 300 301 305 316 324 334 338 335 333 333 318 300 289 284 286 287 284 291 285 277 280 271 272 278 286 288 280 268 279 290 252 248 248 245 246 248 265 250 240 245 246 249 248 245 248 244 244 250 264 278 279 269 262 243
130 126 123 110 91 95 325 319 299 308 344 31 39 61 44 6 345 309 296 294 289 316 306 305 315 314 314 321 319 321 317 308 291 303 308 320 329 338 338 340 343 346 343 334 328 320 315 320 317 313 316 308 292 292 287 285 284 291 289 271 277 266 244 248 244 247 263 258 258 242 243 242 243 245 247 247 251 247 251 252 260 273 267 257 247
125 116 114 95 109 104 206 267 284 340 45 72 75 66 63 48 30 17 26 21 17 3 348 346 347 336 338 340 346 339 330 327 326 334 349 343 353 350 4 360 360 353 350 352 356 352 348 343 343 343 334 324 313 300 299 298 299 298 297 292 284 282 278 251 237 224 235 247 255 247 242 243 244 241 242 244 247 246 248 248 246 257 260 257 244
121 94 82 110 126 122 104 49 342 49 63 71 82 79 79 60 33 41 27 27 12 354 352 343 336 331 349 344 348 332 330 333 347 350 352 4 5 9 11 19 17 13 13 16 18 13 6 4 2 1 2 357 355 348 336 326 312 298 299 296 269 274 276 277 254 238 235 238 245 248 246 240 241 242 241 241 244 243 244 247 241 237 252 252 244
112 120 116 123 100 78 56 32 55 62 61 43 68 57 63 61 43 45 32 26 2 351 355 332 332 336 332 347 331 327 340 355 357 13 15 11 24 31 38 36 31 34 31 29 27 24 23 19 18 10 9 7 1 357 357 356 350 333 317 324 313 286 277 274 275 247 240 240 242 250 246 240 237 236 239 238 239 239 239 244 240 229 233 244 241
102 102 98 74 83 70 43 46 61 67 56 45 46 44 54 66 46 55 50 21 358 349 351 346 339 326 333 336 322 339 8 16 26 32 40 53 51 47 45 41 40 37 36 34 31 26 29 30 30 28 24 19 16 14 11 7 5 1 354 329 307 300 307 307 287 275 256 239 230 241 246 242 232 230 233 234 233 236 237 238 239 232 224 230 236
90 86 87 78 75 76 63 70 65 73 65 50 53 35 46 73 54 42 61 46 17 357 348 354 338 322 327 328 343 5 37 36 44 49 52 55 50 49 44 41 39 39 35 33 33 29 30 34 34 32 30 25 25 26 28 27 26 28 28 24 14 7 349 291 267 274 272 255 233 232 237 240 236 234 233 232 231 233 237 236 235 233 224 220 226
90 88 91 89 82 85 78 68 69 72 68 58 49 39 50 64 73 48 44 43 25 4 340 335 330 315 330 344 5 46 44 50 52 51 52 50 49 47 42 41 39 37 36 32 32 31 32 34 35 33 29 25 22 24 30 27 24 27 27 24 22 22 17 13 350 286 271 264 247 235 234 236 238 236 235 233 234 234 236 237 236 233 227 220 219
85 87 91 87 82 78 76 60 66 71 69 57 39 31 50 49 58 36 35 51 37 356 335 322 306 299 293 6 47 52 53 57 59 56 53 52 51 48 45 40 39 37 34 34 33 36 38 37 35 31 24 24 22 17 20 19 16 20 21 19 17 19 17 11 9 11 334 306 277 256 248 236 238 243 232 234 234 234 233 236 238 234 229 223 218
81 83 85 82 79 72 75 63 62 71 65 54 34 29 32 44 41 39 33 23 28 6 355 341 298 264 340 38 43 69 57 61 59 58 56 51 47 46 43 37 41 33 32 28 32 39 44 43 38 33 26 21 21 18 16 14 11 15 18 16 11 15 15 10 7 7 13 10 333 270 258 237 235 234 232 229 233 235 235 232 234 236 232 226 222
74 81 83 84 79 77 74 61 61 70 71 65 49 48 37 46 53 45 41 41 19 0 347 320 331 318 18 16 21 43 75 66 68 59 55 52 48 49 43 43 38 35 28 26 30 36 45 47 40 34 28 23 18 16 13 12 10 10 13 13 10 11 8 6 3 5 9 4 2 359 295 252 235 235 232 231 232 236 238 233 231 231 232 230 227
81 86 86 87 85 75 69 65 66 69 72 62 54 48 39 36 20 60 41 59 42 1 348 343 31 29 338 346 351 25 73 66 66 57 56 54 47 49 42 44 39 34 25 28 29 29 40 50 42 36 29 26 20 14 10 8 7 6 9 9 10 7 5 1 1 3 2 359 360 359 360 318 246 238 236 228 228 234 236 237 231 228 227 228 228
74 81 84 77 80 80 67 61 52 62 70 53 40 41 30 33 32 56 35 43 57 18 15 24 33 334 158 2 31 7 329 10 42 62 57 59 52 47 41 42 38 34 25 29 26 24 33 44 42 37 30 25 19 15 9 7 6 5 7 9 8 4 3 0 359 360 357 356 355 358 354 360 332 242 238 231 227 228 233 238 235 229 228 225 225
67 71 77 75 75 78 76 67 62 51 69 72 50 42 25 23 26 34 66 59 16 28 24 27 34 5 24 40 354 39 337 5 338 339 68 65 50 46 40 32 30 30 26 26 19 21 32 37 35 38 32 25 20 15 10 6 4 4 4 7 6 5 1 359 359 358 355 354 353 354 353 356 355 350 253 249 234 224 222 226 234 225 229 228 224
62 65 73 75 75 79 78 69 70 53 64 71 63 48 44 32 25 39 39 113 76 45 30 28 38 23 84 84 38 45 56 305 322 289 350 60 55 56 42 30 28 31 30 23 18 23 29 34 32 34 28 23 20 15 10 5 5 357 3 5 5 2 360 357 358 359 356 352 352 353 353 351 355 348 349 244 238 228 220 219 226 230 223 229 227
59 63 69 75 74 72 76 82 73 65 64 75 72 61 44 41 25 43 54 38 106 69 54 36 48 43 44 57 77 104 342 320 14 326 351 40 63 51 41 18 18 29 32 21 20 21 27 29 29 32 25 21 17 14 8 6 4 360 3 1 3 1 358 358 357 359 355 351 349 351 348 352 349 351 347 354 258 231 226 220 219 228 223 227 226
64 63 65 66 73 74 79 77 73 73 74 78 68 62 56 53 46 55 49 52 58 74 44 310 43 41 41 56 64 54 43 41 33 284 323 340 25 21 36 5 16 30 26 19 17 22 26 24 29 31 23 17 13 8 5 3 2 360 2 3 3 359 357 357 357 356 354 350 347 348 349 348 349 347 354 353 359 314 240 226 223 223 225 230 226
70 62 61 67 73 74 74 78 79 74 74 71 74 66 71 60 59 62 62 54 58 82 77 35 65 22 35 51 59 65 58 54 20 8 292 308 316 55 87 360 14 28 34 15 11 18 22 18 23 27 20 14 9 5 2 357 352 348 359 2 1 358 355 355 355 351 352 349 350 345 343 345 345 347 349 355 350 349 346 286 241 226 223 228 228
43 61 57 60 66 75 75 79 81 78 77 76 73 72 72 74 66 61 62 63 67 80 79 64 56 42 32 32 43 53 54 59 34 23 55 324 296 358 342 57 83 50 13 14 11 19 29 19 18 28 16 9 4 2 359 354 348 345 2 0 359 356 352 353 351 349 349 349 347 344 341 343 344 344 346 349 345 348 341 342 327 245 219 223 223
57 56 65 59 69 68 75 79 85 85 78 84 84 77 74 72 71 76 77 79 66 69 74 72 66 57 55 51 49 29 46 25 26 15 39 60 12 333 346 347 350 9 52 8 2 20 26 17 12 18 12 5 3 359 355 354 353 357 360 359 358 354 353 350 349 347 348 346 346 343 343 342 343 341 345 342 345 340 341 342 336 339 264 223 217
68 62 61 66 71 68 76 78 77 82 80 80 79 85 84 81 78 77 74 77 74 71 69 64 65 61 52 49 55 52 57 57 27 25 42 20 350 343 334 351 317 315 5 3 351 9 26 20 7 8 3 359 358 357 355 352 352 358 357 359 356 352 352 349 346 347 345 346 345 343 341 342 340 342 339 340 340 337 341 335 343 339 343 308 235
67 71 60 61 73 71 74 81 80 81 79 84 86 87 85 84 81 80 76 70 70 71 71 69 67 69 61 58 62 63 57 55 46 41 38 39 23 326 335 328 322 202 309 347 341 357 22 14 7 357 355 354 355 353 349 347 347 352 356 355 353 351 348 346 344 343 342 341 341 339 339 338 339 338 337 338 335 339 337 340 337 341 340 342 324
71 78 65 68 78 82 78 81 83 83 92 91 87 86 88 86 85 77 73 69 69 75 74 71 70 69 74 63 65 60 55 47 47 46 40 42 34 354 342 329 300 318 331 358 1 341 27 9 360 347 351 353 350 349 346 344 347 345 353 348 349 344 345 342 342 340 338 336 334 335 335 334 336 335 337 334 333 334 336 336 333 336 336 339 333
96 86 83 80 70 75 82 84 90 97 96 93 91 89 88 86 81 81 77 78 78 78 78 77 72 69 66 68 57 52 51 41 44 43 39 32 28 21 339 339 263 285 325 347 2 355 340 9 352 333 348 353 350 344 340 344 337 342 348 347 337 341 338 336 336 338 335 333 328 328 328 329 330 332 332 331 330 328 331 328 332 331 335 331 333
97 93 81 82 82 84 86 91 93 93 95 94 92 89 88 86 83 85 83 82 79 79 73 72 70 64 58 58 64 50 45 43 39 45 44 45 40 20 17 357 352 299 352 354 354 39 345 329 347 324 356 349 344 341 340 340 336 338 344 340 336 333 332 330 335 335 333 329 324 322 322 322 321 324 324 326 323 326 322 326 325 329 325 330 322
95 92 73 86 90 89 86 91 95 96 96 97 95 92 92 92 89 88 86 79 82 75 72 70 67 63 64 59 63 55 45 43 44 44 44 39 41 35 24 33 15 349 340 344 5 348 6 349 329 7 352 347 341 338 335 333 329 335 339 334 330 327 324 327 331 330 327 323 322 320 319 316 318 318 322 321 322 321 320 320 323 322 323 321 321
102 92 92 82 88 93 93 94 94 97 94 93 95 96 94 92 93 91 88 82 80 74 69 70 68 67 65 61 69 67 51 45 45 43 36 36 35 28 35 36 21 13 355 335 342 341 341 4 346 326 344 339 334 333 327 329 328 335 334 331 326 323 321 328 327 321 317 319 317 316 313 313 315 318 319 319 318 317 317 315 315 318 318 316 314
100 98 93 90 86 91 96 95 97 95 99 99 99 99 97 91 90 87 87 86 82 74 69 71 68 71 73 69 62 66 51 45 47 33 34 27 19 19 23 16 20 24 6 346 321 334 325 333 337 323 331 333 336 327 327 318 327 331 331 322 320 317 322 323 320 316 315 314 314 312 309 310 312 315 314 315 314 315 313 312 310 313 314 312 313
102 103 99 95 96 89 96 99 99 102 104 103 101 97 97 97 92 89 81 81 82 78 68 73 70 73 76 74 61 66 47 50 41 32 25 22 11 5 1 1 4 19 1 346 333 298 9 322 321 321 320 326 328 323 319 323 325 330 322 318 319 320 320 313 311 313 312 312 313 311 316 315 313 306 309 310 313 312 312 309 310 308 310 311 312
103 103 100 102 101 101 98 105 105 108 105 100 98 99 97 95 96 88 81 84 81 79 75 65 77 77 81 77 65 62 49 49 41 29 21 11 8 359 356 350 356 7 356 343 319 297 321 309 306 310 319 324 322 323 324 320 323 323 319 317 318 317 315 309 303 309 309 311 309 311 311 311 307 308 308 312 312 311 311 310 306 305 305 305 303
111 104 102 102 102 105 109 109 113 113 108 103 102 104 99 97 91 89 83 81 83 82 87 81 73 76 75 75 66 54 46 50 34 24 11 1 352 354 345 353 344 352 359 333 318 306 298 295 302 310 316 318 320 323 321 321 320 321 319 314 313 314 313 309 309 306 311 308 310 310 309 308 307 307 310 308 309 307 306 302 299 297 296 299 300
108 110 104 106 106 112 110 111 109 107 105 107 110 105 103 100 92 88 89 85 90 88 90 87 76 69 69 71 58 50 38 56 30 22 7 353 356 347 360 351 342 331 353 333 315 317 308 316 315 316 311 325 313 316 318 320 317 316 317 317 312 311 304 313 310 311 311 311 310 308 309 307 306 303 302 302 301 300 301 297 295 290 290 294 296
92 104 113 115 116 115 108 108 107 105 108 110 109 107 104 103 102 98 97 103 106 108 97 91 82 74 66 63 56 45 23 40 26 15 5 1 353 358 344 345 336 324 327 325 319 314 309 309 315 315 322 323 319 316 318 314 310 311 313 316 317 314 303 302 305 309 310 311 306 307 306 305 300 300 299 299 297 297 296 297 293 289 287 288 292
106 94 102 118 118 113 108 104 107 112 112 112 108 106 110 111 113 112 111 108 109 109 104 94 82 73 72 63 44 38 27 34 10 4 6 359 6 348 340 336 329 325 318 324 307 310 305 316 318 322 317 322 311 307 308 303 305 313 314 309 305 304 309 308 305 305 312 307 307 304 303 300 298 295 296 295 298 299 299 297 296 291 287 284 284
107 114 103 111 112 109 111 115 115 118 121 119 113 110 111 117 119 117 117 115 113 109 104 100 91 84 72 70 46 32 28 23 4 9 357 359 352 348 338 332 333 326 322 318 317 312 310 311 308 308 312 305 302 304 307 315 314 304 300 303 311 314 310 304 297 303 287 303 300 300 299 299 294 291 291 295 297 298 295 294 293 291 286 283 280
108 104 111 104 107 106 105 111 115 119 122 120 121 123 120 114 109 107 111 113 111 103 97 89 90 78 75 53 37 31 29 29 8 357 360 351 339 347 340 336 336 329 323 319 322 322 316 306 312 312 318 321 317 310 314 320 321 319 317 311 308 303 315 317 319 323 317 305 308 295 295 294 290 291 292 293 294 292 291 289 289 289 286 282 277
118 114 103 102 91 106 110 114 118 124 122 121 123 123 121 119 120 118 112 106 97 95 89 87 73 67 44 28 19 14 20 26 21 8 350 345 340 335 342 336 331 333 326 326 327 324 322 317 310 305 310 313 314 316 321 319 313 314 316 322 322 325 326 327 323 322 323 315 296 281 287 293 297 295 294 291 289 287 286 287 285 286 287 283 279
112 115 117 110 107 104 112 111 115 122 122 121 120 122 125 130 126 123 123 114 104 85 79 65 55 43 34 25 15 7 10 24 20 22 18 344 337 336 344 341 337 332 330 325 327 326 325 323 320 320 321 315 313 296 304 315 318 313 328 325 319 324 325 328 320 323 323 318 314 313 302 295 291 282 282 284 280 278 279 280 283 285 287 288 283
96 97 103 113 118 107 101 108 113 117 126 133 138 136 130 129 127 125 123 122 118 107 80 61 44 39 28 17 5 1 10 6 5 13 15 12 351 338 333 341 331 332 323 328 325 326 322 322 318 318 319 320 318 321 328 333 337 326 324 322 314 310 312 315 319 315 317 316 321 319 317 306 302 307 299 299 291 289 288 282 285 286 284 281 279
102 102 103 106 115 121 116 107 107 115 122 138 149 151 143 138 130 119 114 123 124 119 100 78 45 37 25 18 0 9 6 1 359 3 358 356 1 353 323 314 323 320 326 328 330 331 326 326 328 326 325 324 322 325 321 318 315 318 318 321 316 316 315 317 306 314 319 320 324 320 313 313 305 313 312 309 308 300 300 298 292 287 285 282 279
108 112 112 114 111 115 118 120 116 114 125 143 145 148 143 138 131 132 132 131 122 105 98 90 75 46 21 7 4 2 5 357 355 355 352 357 351 350 345 341 339 335 333 334 329 330 331 323 317 320 319 314 317 318 319 315 324 324 320 317 317 319 322 323 322 324 350 326 323 317 311 318 320 316 313 311 311 309 305 299 292 287 285 282 279
101 99 108 110 111 112 109 106 111 120 126 154 155 148 148 148 140 134 136 135 126 111 105 99 88 55 19 2 353 6 357 356 1 351 348 348 347 344 341 338 336 335 338 333 320 327 330 325 322 320 316 318 314 318 317 326 326 320 316 316 318 319 319 319 320 323 327 324 321 319 314 321 322 318 315 310 307 301 287 286 286 285 282 280 278
109 110 120 116 111 111 113 112 105 103 116 149 157 149 149 149 142 135 142 145 133 131 110 99 58 41 19 2 349 349 354 358 358 350 353 339 336 336 338 337 332 335 336 333 333 323 312 309 316 311 318 317 317 316 320 321 316 314 318 320 317 314 311 314 317 316 317 318 317 321 316 320 324 319 310 308 310 302 289 280 280 281 280 278 279
116 117 115 113 114 109 113 112 110 104 111 145 146 138 139 143 148 142 150 142 126 110 108 54 46 24 3 358 351 335 338 350 343 350 347 341 333 334 337 338 336 330 331 331 329 331 331 319 311 308 307 317 309 306 313 316 321 321 324 319 319 317 319 314 310 306 308 322 325 321 312 318 328 319 309 308 306 301 298 293 285 283 280 278 274
139 141 140 128 120 112 110 113 109 94 79 132 141 128 131 134 136 133 130 117 108 95 61 55 47 4 353 358 341 319 325 332 338 349 343 336 333 326 328 331 334 327 317 316 329 329 323 316 307 296 298 307 301 307 307 315 314 312 315 313 313 310 310 305 304 310 316 320 324 322 312 319 325 317 309 306 308 305 303 299 289 281 279 276 274
115 116 105 109 118 119 120 117 109 100 67 124 130 123 125 127 125 119 126 120 115 96 42 40 25 16 15 357 349 340 341 328 327 344 340 328 329 336 335 329 331 332 318 300 315 321 319 311 307 303 303 307 314 312 315 316 314 311 310 306 305 318 317 318 323 326 329 325 321 323 321 318 322 316 309 309 309 305 304 299 292 284 278 275 273
134 132 134 122 129 130 128 123 112 110 100 108 120 120 123 125 115 115 119 111 104 98 37 8 10 357 2 338 331 351 343 318 336 340 337 335 353 349 336 329 326 324 326 330 336 329 324 322 315 317 317 320 323 323 322 324 327 323 319 323 333 331 326 324 320 326 330 328 328 339 324 313 319 317 313 311 308 300 298 300 299 291 282 278 275
140 140 130 117 122 134 133 136 135 128 127 128 126 119 120 125 131 132 131 122 103 73 16 350 6 7 333 335 357 16 336 330 339 336 336 341 1 345 343 335 332 334 332 337 335 324 330 326 328 328 326 327 328 325 324 328 331 340 347 343 333 330 324 323 323 325 324 329 341 342 324 315 315 320 315 304 297 292 292 293 295 304 305 298 290
132 132 123 122 119 111 135 144 135 122 128 122 126 124 121 121 120 122 125 125 117 68 25 351 337 4 343 322 358 5 349 335 337 345 348 350 348 346 335 331 331 328 321 330 318 324 328 332 328 333 330 332 328 325 324 329 335 344 348 331 332 336 326 325 324 320 320 334 339 341 328 319 323 322 329 321 318 316 261 318 315 315 310 300 293